Content
SEND FEEDBACK

Daily
Averages
Monthly
Summary
United States of America

MERIZO, GUAM


Home > North America > United States > Guam
Elevation: 10 feet     Latitude: 13 14N     Longitude: 144 39E

WEATHER
 
SELECT A DAY
Number of Records: 342,166;   Date Range: 1/1/95 - 8/12/14
 
SHARE

PRINT THIS DATA

[ ← Previous Day ]
WEATHER ALMANAC - FEBRUARY 14, 2013
[ Next Day → ]
[ °C ]   °F
Weather ElementAverageHighLow
Temperature78.6 °F82.4 °F (2:24 pm)76.8 °F (5:55 am)
Dewpoint72.4 °F75.2 °F (6:38 pm)68.9 °F (5:55 am)
Humidity81.2 %89 % (6:28 pm)68 % (10:55 am)
Barometer29.82 in29.88 in (9:57 am)29.77 in (3:18 pm)
Wind Speed20.1 mph24.2 mph (3:55 pm)
Wind Gust29.9 mph (6:28 pm)
Weather ElementAverage
Visibility10 mi
Wind DirectionENE (53.1 °)

Weather ElementTotal
Precipitation---
Cooling Degree Days14.6 (Base 65)
Growing Degree Days29.6 (Base 50)
Averaged from 84 records on February 14, 2013
WEATHER CONDITIONS BREAKOUT
WIND DIRECTION BREAKOUT
WEATHER BY HOUR - FEBRUARY 14, 2013
[ °C ]   °F
Local TimeTemperatureDewpointHumidityBarometerVisibilityWind DirectionWind SpeedGust SpeedPrecipitationEventsConditions
1:55 AM77.7 °F71.2 °F80 %29.85 in10.0 miENE (70°)19.6 mph25.3 mphPartly Cloudy
2:35 AM77.0 °F71.6 °F83 %29.85 in10.0 miENE (60°)19.6 mphMostly Cloudy
2:50 AM77.0 °F71.6 °F83 %29.84 in10.0 miENE (60°)17.3 mph24.2 mphMostly Cloudy
2:55 AM77.5 °F70.5 °F79 %29.84 in10.0 miENE (60°)20.7 mph26.5 mphScattered Clouds
2:57 AM77.0 °F69.8 °F78 %29.84 in10.0 miENE (60°)19.6 mph26.5 mphMostly Cloudy
3:06 AM77.0 °F71.6 °F83 %29.84 in10.0 miENE (60°)16.1 mphScattered Clouds
3:55 AM77.2 °F69.8 °F78 %29.83 in10.0 miENE (60°)17.3 mphPartly Cloudy
4:55 AM77.0 °F69.8 °F78 %29.83 in10.0 miENE (70°)16.1 mphPartly Cloudy
5:14 AM77.0 °F69.8 °F78 %29.83 in10.0 miENE (60°)17.3 mphMostly Cloudy
5:16 AM77.0 °F69.8 °F78 %29.83 in10.0 miNE (50°)18.4 mphMostly Cloudy
5:18 AM77.0 °F69.8 °F78 %29.83 in10.0 miENE (60°)17.3 mphMostly Cloudy
5:38 AM77.0 °F69.8 °F78 %29.83 in10.0 miENE (60°)17.3 mphScattered Clouds
5:55 AM76.8 °F68.9 °F76 %29.84 in10.0 miENE (60°)17.3 mphPartly Cloudy
6:55 AM77.4 °F70.0 °F78 %29.86 in10.0 miNE (50°)17.3 mphScattered Clouds
7:07 AM77.0 °F69.8 °F78 %29.85 in10.0 miENE (60°)16.1 mphMostly Cloudy
7:10 AM77.0 °F71.6 °F83 %29.85 in10.0 miNE (50°)16.1 mphScattered Clouds
7:12 AM77.0 °F71.6 °F83 %29.85 in10.0 miNE (50°)19.6 mphMostly Cloudy
7:18 AM77.0 °F71.6 °F83 %29.85 in10.0 miENE (60°)18.4 mph23.0 mphMostly Cloudy
7:49 AM78.8 °F71.6 °F78 %29.86 in10.0 miNE (50°)18.4 mphMostly Cloudy
7:54 AM78.8 °F71.6 °F78 %29.86 in10.0 miNE (50°)16.1 mphScattered Clouds
7:55 AM78.6 °F71.6 °F79 %29.86 in10.0 miNE (50°)17.3 mphScattered Clouds
8:02 AM78.8 °F71.6 °F78 %29.86 in10.0 miNE (50°)17.3 mphMostly Cloudy
8:13 AM78.8 °F71.6 °F78 %29.86 in10.0 miNE (50°)18.4 mphMostly Cloudy
8:25 AM78.8 °F71.6 °F78 %29.87 in10.0 miNE (50°)20.7 mphMostly Cloudy
8:38 AM78.8 °F71.6 °F78 %29.87 in10.0 miNE (40°)19.6 mphMostly Cloudy
8:55 AM79.3 °F71.8 °F78 %29.87 in10.0 miNE (50°)20.7 mphScattered Clouds
9:55 AM79.7 °F71.4 °F76 %29.87 in10.0 miNE (50°)21.9 mph28.8 mphScattered Clouds
9:57 AM80.6 °F71.6 °F74 %29.88 in10.0 miNE (50°)20.7 mph28.8 mphMostly Cloudy
10:10 AM80.6 °F71.6 °F74 %29.87 in10.0 miNE (50°)19.6 mph26.5 mphScattered Clouds
10:55 AM81.5 °F70.0 °F68 %29.86 in10.0 miENE (60°)23.0 mph28.8 mphPartly Cloudy
11:55 AM81.5 °F70.0 °F68 %29.85 in10.0 miNE (50°)21.9 mphPartly Cloudy
12:55 PM81.7 °F71.2 °F70 %29.82 in10.0 miNE (50°)20.7 mph25.3 mphPartly Cloudy
1:55 PM81.5 °F72.7 °F74 %29.80 in10.0 miNE (50°)21.9 mph27.6 mphScattered Clouds
2:11 PM80.6 °F73.4 °F79 %29.79 in10.0 miNE (50°)18.4 mphMostly Cloudy
2:21 PM80.6 °F73.4 °F79 %29.79 in10.0 miNE (40°)21.9 mphScattered Clouds
2:24 PM82.4 °F73.4 °F74 %29.79 in10.0 miNE (50°)20.7 mphMostly Cloudy
2:39 PM80.6 °F73.4 °F79 %29.78 in10.0 miNE (50°)21.9 mphScattered Clouds
2:55 PM81.5 °F72.9 °F75 %29.78 in10.0 miNE (50°)20.7 mph27.6 mphScattered Clouds
3:18 PM82.4 °F73.4 °F74 %29.77 in10.0 miNE (50°)19.6 mphMostly Cloudy
3:21 PM82.4 °F73.4 °F74 %29.78 in10.0 miNE (50°)21.9 mphScattered Clouds
3:27 PM80.6 °F73.4 °F79 %29.77 in10.0 miNE (50°)21.9 mph26.5 mphMostly Cloudy
3:37 PM80.6 °F73.4 °F79 %29.77 in10.0 miNE (40°)21.9 mph28.8 mphRainLight Rain
3:41 PM80.6 °F73.4 °F79 %29.77 in10.0 miNE (50°)23.0 mph28.8 mphRainLight Rain
3:46 PM80.6 °F73.4 °F79 %29.77 in10.0 miNE (50°)21.9 mph28.8 mphMostly Cloudy
3:48 PM80.6 °F73.4 °F79 %29.77 in10.0 miNE (50°)21.9 mph28.8 mphScattered Clouds
3:55 PM80.8 °F72.9 °F77 %29.77 in10.0 miNE (40°)24.2 mph28.8 mph0.00 inScattered Clouds
4:03 PM80.6 °F73.4 °F79 %29.77 in10.0 miNE (50°)21.9 mphMostly Cloudy
4:10 PM80.6 °F73.4 °F79 %29.77 in10.0 miNE (50°)21.9 mphScattered Clouds
4:55 PM80.1 °F72.9 °F79 %29.78 in10.0 miNE (50°)24.2 mph27.6 mphScattered Clouds
5:12 PM80.6 °F73.4 °F79 %29.78 in10.0 miNE (50°)23.0 mphMostly Cloudy
5:15 PM80.6 °F73.4 °F79 %29.78 in10.0 miENE (60°)20.7 mphScattered Clouds
5:22 PM78.8 °F73.4 °F83 %29.78 in10.0 miNE (50°)24.2 mph28.8 mphMostly Cloudy
5:24 PM78.8 °F73.4 °F83 %29.78 in10.0 miNE (50°)24.2 mph28.8 mphScattered Clouds
5:55 PM78.1 °F73.6 °F86 %29.78 in10.0 miNE (50°)20.7 mph26.5 mphScattered Clouds
6:28 PM77.0 °F73.4 °F89 %29.79 in10.0 miNE (50°)23.0 mph29.9 mphMostly Cloudy
6:37 PM78.8 °F73.4 °F83 %29.79 in9.0 miNE (50°)18.4 mphRainLight Rain
6:38 PM78.8 °F75.2 °F89 %29.79 in8.0 miNE (50°)19.6 mphRainLight Rain
6:47 PM77.0 °F73.4 °F89 %29.79 in9.0 miNE (50°)24.2 mph27.6 mphRainLight Rain
6:48 PM77.0 °F73.4 °F89 %29.79 in10.0 miNE (50°)23.0 mph27.6 mphOvercast
6:49 PM77.0 °F73.4 °F89 %29.79 in10.0 miNE (50°)20.7 mph27.6 mphOvercast
6:50 PM77.0 °F73.4 °F89 %29.79 in10.0 miNE (50°)20.7 mphOvercast
6:53 PM77.0 °F73.4 °F89 %29.79 in10.0 miNE (50°)24.2 mphMostly Cloudy
6:55 PM77.2 °F73.8 °F89 %29.79 in10.0 miNE (50°)23.0 mph0.00 inMostly Cloudy
6:59 PM77.0 °F73.4 °F89 %29.80 in10.0 miNE (50°)21.9 mphMostly Cloudy
7:02 PM77.0 °F73.4 °F89 %29.80 in10.0 miNE (50°)18.4 mph28.8 mphMostly Cloudy
7:04 PM77.0 °F73.4 °F89 %29.80 in10.0 miNE (50°)21.9 mph28.8 mphMostly Cloudy
7:27 PM77.0 °F73.4 °F89 %29.80 in10.0 miNE (50°)18.4 mph27.6 mphMostly Cloudy
7:28 PM77.0 °F73.4 °F89 %29.80 in10.0 miNE (50°)18.4 mph27.6 mphMostly Cloudy
7:48 PM77.0 °F73.4 °F89 %29.80 in10.0 miNE (50°)20.7 mphMostly Cloudy
7:49 PM77.0 °F73.4 °F89 %29.80 in10.0 miNE (50°)19.6 mphScattered Clouds
7:55 PM77.4 °F72.5 °F85 %29.80 in10.0 miENE (60°)20.7 mphScattered Clouds
8:55 PM77.5 °F73.0 °F86 %29.81 in10.0 miNE (50°)18.4 mphScattered Clouds
8:59 PM77.0 °F73.4 °F89 %29.81 in10.0 miNE (50°)15.0 mph24.2 mphMostly Cloudy
9:55 PM77.7 °F73.6 °F87 %29.82 in10.0 miENE (60°)20.7 mph25.3 mphMostly Cloudy
9:56 PM77.0 °F73.4 °F89 %29.82 in10.0 miENE (60°)20.7 mph25.3 mphMostly Cloudy
10:04 PM77.0 °F73.4 °F89 %29.82 in10.0 miENE (60°)20.7 mph26.5 mphMostly Cloudy
10:14 PM78.8 °F73.4 °F83 %29.82 in10.0 miENE (60°)19.6 mph26.5 mphMostly Cloudy
10:24 PM78.8 °F73.4 °F83 %29.83 in10.0 miENE (60°)20.7 mphMostly Cloudy
10:27 PM78.8 °F73.4 °F83 %29.83 in10.0 miENE (60°)19.6 mphMostly Cloudy
10:35 PM78.8 °F73.4 °F83 %29.83 in10.0 miENE (60°)21.9 mph26.5 mphMostly Cloudy
10:55 PM78.1 °F72.9 °F84 %29.83 in10.0 miENE (60°)19.6 mph27.6 mphMostly Cloudy
10:57 PM78.8 °F73.4 °F83 %29.83 in10.0 miENE (60°)19.6 mph27.6 mphMostly Cloudy
11:02 PM78.8 °F71.6 °F78 %29.83 in10.0 miENE (60°)18.4 mph26.5 mphMostly Cloudy
11:55 PM77.7 °F72.9 °F85 %29.82 in10.0 miENE (60°)18.4 mph25.3 mphPartly Cloudy
Hourly data recorded from PGUA, located miles away from Merizo, Guam







STORIES FROM OUR PARTNERS